iso_date,epoch_date,Year,Hour,Min,DOY,POS_DOY,Lat,Lon,BP,Ts,Ta,has_bp,has_ts,has_ta,BuoyID,Buoy_Type,Buoy_Owner,Logistics,Hemisphere
2016-07-02T09:17:16Z,1467451037,2016,9,18,184.387,184.387,69.9964,-62.1548,1014.4,-1.56,-999.0,yes,yes,no,300234063266850,unknown,unknown,unknown,South
2016-07-02T11:25:26Z,1467458726,2016,11,26,184.476,184.476,70.0044,-62.4222,1014.9,-0.94,-999.0,yes,yes,no,300234063266850,unknown,unknown,unknown,South
2016-07-02T12:00:00Z,1467460800,2016,12,0,184.5,184.5,70.0058,-62.4256,1015.0,0.99,-999.0,yes,yes,no,300234063266850,unknown,unknown,unknown,South
2016-07-02T13:00:28Z,1467464429,2016,13,0,184.542,184.542,70.008,-62.429,1016.0,5.15,-999.0,yes,yes,no,300234063266850,unknown,unknown,unknown,South
2016-07-02T13:59:31Z,1467467971,2016,14,0,184.583,184.583,70.0092,-62.429,1016.4,4.16,-999.0,yes,yes,no,300234063266850,unknown,unknown,unknown,South
2016-07-02T15:00:00Z,1467471600,2016,15,0,184.625,184.625,70.0078,-62.425,1016.7,3.27,-999.0,yes,yes,no,300234063266850,unknown,unknown,unknown,South
2016-07-02T16:00:28Z,1467475229,2016,16,0,184.667,184.667,70.0038,-62.419,1016.9,3.72,-999.0,yes,yes,no,300234063266850,unknown,unknown,unknown,South
2016-07-02T16:59:31Z,1467478771,2016,17,0,184.708,184.708,69.9974,-62.4136,1017.0,4.19,-999.0,yes,yes,no,300234063266850,unknown,unknown,unknown,South
2016-07-02T18:00:00Z,1467482400,2016,18,0,184.75,184.75,69.99,-62.4112,1017.4,4.35,-999.0,yes,yes,no,300234063266850,unknown,unknown,unknown,South
2016-07-02T19:00:28Z,1467486029,2016,19,0,184.792,184.792,69.983,-62.4116,1017.8,4.27,-999.0,yes,yes,no,300234063266850,unknown,unknown,unknown,South
2016-07-02T19:59:31Z,1467489571,2016,20,0,184.833,184.833,69.9774,-62.4158,1018.1,4.15,-999.0,yes,yes,no,300234063266850,unknown,unknown,unknown,South
2016-07-02T21:00:00Z,1467493200,2016,21,0,184.875,184.875,69.974,-62.4218,1018.4,3.91,-999.0,yes,yes,no,300234063266850,unknown,unknown,unknown,South
2016-07-02T22:00:28Z,1467496829,2016,22,0,184.917,184.917,69.9728,-62.4296,1018.7,3.56,-999.0,yes,yes,no,300234063266850,unknown,unknown,unknown,South
2016-07-02T22:59:31Z,1467500371,2016,23,0,184.958,184.958,69.9734,-62.4396,1019.1,3.16,-999.0,yes,yes,no,300234063266850,unknown,unknown,unknown,South
2016-07-03T00:00:00Z,1467504000,2016,0,0,185.0,185.0,69.975,-62.4504,1019.4,2.7,-999.0,yes,yes,no,300234063266850,unknown,unknown,unknown,South
2016-07-03T01:00:28Z,1467507629,2016,1,0,185.042,185.042,69.977,-62.4594,1019.7,2.22,-999.0,yes,yes,no,300234063266850,unknown,unknown,unknown,South
2016-07-03T01:59:31Z,1467511171,2016,2,0,185.083,185.083,69.9778,-62.4648,1020.1,1.86,-999.0,yes,yes,no,300234063266850,unknown,unknown,unknown,South
2016-07-03T03:00:00Z,1467514800,2016,3,0,185.125,185.125,69.9768,-62.4664,1020.4,1.6,-999.0,yes,yes,no,300234063266850,unknown,unknown,unknown,South
2016-07-03T04:00:28Z,1467518429,2016,4,0,185.167,185.167,69.9736,-62.4644,1020.6,1.36,-999.0,yes,yes,no,300234063266850,unknown,unknown,unknown,South
2016-07-03T04:59:31Z,1467521971,2016,5,0,185.208,185.208,69.9686,-62.4638,1020.9,1.18,-999.0,yes,yes,no,300234063266850,unknown,unknown,unknown,South
2016-07-03T06:00:00Z,1467525600,2016,6,0,185.25,185.25,69.9626,-62.4654,1021.1,1.1,-999.0,yes,yes,no,300234063266850,unknown,unknown,unknown,South
2016-07-03T07:00:28Z,1467529229,2016,7,0,185.292,185.292,69.9564,-62.468,1021.5,1.09,-999.0,yes,yes,no,300234063266850,unknown,unknown,unknown,South
2016-07-03T07:59:31Z,1467532771,2016,8,0,185.333,185.333,69.9508,-62.4706,1021.7,1.14,-999.0,yes,yes,no,300234063266850,unknown,unknown,unknown,South
2016-07-03T09:00:00Z,1467536400,2016,9,0,185.375,185.375,69.9458,-62.4732,1022.0,1.56,-999.0,yes,yes,no,300234063266850,unknown,unknown,unknown,South
2016-07-03T10:00:28Z,1467540029,2016,10,0,185.417,185.417,69.9422,-62.4784,1021.9,1.9,-999.0,yes,yes,no,300234063266850,unknown,unknown,unknown,South
2016-07-03T10:59:31Z,1467543571,2016,11,0,185.458,185.458,69.9396,-62.4886,1022.5,2.3,-999.0,yes,yes,no,300234063266850,unknown,unknown,unknown,South
2016-07-03T12:00:00Z,1467547200,2016,12,0,185.5,185.5,69.9384,-62.501,1022.6,3.06,-999.0,yes,yes,no,300234063266850,unknown,unknown,unknown,South
2016-07-03T13:00:28Z,1467550829,2016,13,0,185.542,185.542,69.9378,-62.5136,1023.0,4.24,-999.0,yes,yes,no,300234063266850,unknown,unknown,unknown,South
2016-07-03T13:59:31Z,1467554371,2016,14,0,185.583,185.583,69.9374,-62.5228,1023.2,4.12,-999.0,yes,yes,no,300234063266850,unknown,unknown,unknown,South
2016-07-03T15:00:00Z,1467558000,2016,15,0,185.625,185.625,69.9358,-62.5258,1023.2,4.54,-999.0,yes,yes,no,300234063266850,unknown,unknown,unknown,South
2016-07-03T16:00:28Z,1467561629,2016,16,0,185.667,185.667,69.9308,-62.528,1023.1,5.49,-999.0,yes,yes,no,300234063266850,unknown,unknown,unknown,South
2016-07-03T16:59:31Z,1467565171,2016,17,0,185.708,185.708,69.923,-62.5292,1023.3,5.87,-999.0,yes,yes,no,300234063266850,unknown,unknown,unknown,South
2016-07-03T18:00:00Z,1467568800,2016,18,0,185.75,185.75,69.9146,-62.5306,1023.6,6.0,-999.0,yes,yes,no,300234063266850,unknown,unknown,unknown,South
2016-07-03T19:00:28Z,1467572429,2016,19,0,185.792,185.792,69.9056,-62.5316,1023.8,5.87,-999.0,yes,yes,no,300234063266850,unknown,unknown,unknown,South
2016-07-03T19:59:31Z,1467575971,2016,20,0,185.833,185.833,69.8968,-62.5332,1023.8,5.64,-999.0,yes,yes,no,300234063266850,unknown,unknown,unknown,South
2016-07-03T21:00:00Z,1467579600,2016,21,0,185.875,185.875,69.8888,-62.5366,1024.0,5.06,-999.0,yes,yes,no,300234063266850,unknown,unknown,unknown,South
2016-07-03T22:00:28Z,1467583229,2016,22,0,185.917,185.917,69.8826,-62.5438,1023.8,4.41,-999.0,yes,yes,no,300234063266850,unknown,unknown,unknown,South
2016-07-03T22:59:31Z,1467586771,2016,23,0,185.958,185.958,69.8792,-62.5544,1024.0,3.53,-999.0,yes,yes,no,300234063266850,unknown,unknown,unknown,South
2016-07-04T00:00:00Z,1467590400,2016,0,0,186.0,186.0,69.8784,-62.5686,1024.0,2.81,-999.0,yes,yes,no,300234063266850,unknown,unknown,unknown,South
2016-07-04T01:00:28Z,1467594029,2016,1,0,186.042,186.042,69.8786,-62.5838,1024.1,1.43,-999.0,yes,yes,no,300234063266850,unknown,unknown,unknown,South
2016-07-04T01:59:31Z,1467597571,2016,2,0,186.083,186.083,69.8788,-62.5954,1024.3,1.08,-999.0,yes,yes,no,300234063266850,unknown,unknown,unknown,South
2016-07-04T03:00:00Z,1467601200,2016,3,0,186.125,186.125,69.8778,-62.6008,1024.0,0.83,-999.0,yes,yes,no,300234063266850,unknown,unknown,unknown,South
2016-07-04T04:00:28Z,1467604829,2016,4,0,186.167,186.167,69.8744,-62.603,1024.0,0.66,-999.0,yes,yes,no,300234063266850,unknown,unknown,unknown,South
2016-07-04T04:59:31Z,1467608371,2016,5,0,186.208,186.208,69.8694,-62.5994,1024.0,0.58,-999.0,yes,yes,no,300234063266850,unknown,unknown,unknown,South
2016-07-04T06:00:00Z,1467612000,2016,6,0,186.25,186.25,69.8626,-62.5916,1023.9,0.54,-999.0,yes,yes,no,300234063266850,unknown,unknown,unknown,South
2016-07-04T07:00:28Z,1467615629,2016,7,0,186.292,186.292,69.854,-62.5816,1023.7,0.57,-999.0,yes,yes,no,300234063266850,unknown,unknown,unknown,South
2016-07-04T07:59:31Z,1467619171,2016,8,0,186.333,186.333,69.8444,-62.5712,1023.6,0.6,-999.0,yes,yes,no,300234063266850,unknown,unknown,unknown,South
2016-07-04T09:00:00Z,1467622800,2016,9,0,186.375,186.375,69.8344,-62.563,1023.6,0.64,-999.0,yes,yes,no,300234063266850,unknown,unknown,unknown,South
2016-07-04T10:00:28Z,1467626429,2016,10,0,186.417,186.417,69.826,-62.5572,1023.5,0.75,-999.0,yes,yes,no,300234063266850,unknown,unknown,unknown,South
2016-07-04T10:59:31Z,1467629971,2016,11,0,186.458,186.458,69.8194,-62.5548,1023.4,0.95,-999.0,yes,yes,no,300234063266850,unknown,unknown,unknown,South
2016-07-04T12:00:00Z,1467633600,2016,12,0,186.5,186.5,69.8142,-62.5558,1023.4,1.03,-999.0,yes,yes,no,300234063266850,unknown,unknown,unknown,South
2016-07-04T13:00:28Z,1467637229,2016,13,0,186.542,186.542,69.8096,-62.5598,1023.4,1.06,-999.0,yes,yes,no,300234063266850,unknown,unknown,unknown,South
2016-07-04T13:59:31Z,1467640771,2016,14,0,186.583,186.583,69.8054,-62.5652,1023.1,1.09,-999.0,yes,yes,no,300234063266850,unknown,unknown,unknown,South
2016-07-04T15:00:00Z,1467644400,2016,15,0,186.625,186.625,69.8,-62.5708,1023.0,0.99,-999.0,yes,yes,no,300234063266850,unknown,unknown,unknown,South
2016-07-04T16:00:28Z,1467648029,2016,16,0,186.667,186.667,69.7934,-62.5764,1022.9,0.96,-999.0,yes,yes,no,300234063266850,unknown,unknown,unknown,South
2016-07-04T16:59:31Z,1467651571,2016,17,0,186.708,186.708,69.7858,-62.58,1022.7,0.89,-999.0,yes,yes,no,300234063266850,unknown,unknown,unknown,South
2016-07-04T18:00:00Z,1467655200,2016,18,0,186.75,186.75,69.7764,-62.5802,1022.7,0.87,-999.0,yes,yes,no,300234063266850,unknown,unknown,unknown,South
2016-07-04T19:00:28Z,1467658829,2016,19,0,186.792,186.792,69.7654,-62.5774,1022.7,0.86,-999.0,yes,yes,no,300234063266850,unknown,unknown,unknown,South
2016-07-04T19:59:31Z,1467662371,2016,20,0,186.833,186.833,69.7534,-62.5734,1022.6,0.75,-999.0,yes,yes,no,300234063266850,unknown,unknown,unknown,South
2016-07-04T21:00:00Z,1467666000,2016,21,0,186.875,186.875,69.7418,-62.5702,1022.7,0.72,-999.0,yes,yes,no,300234063266850,unknown,unknown,unknown,South
2016-07-04T22:00:28Z,1467669629,2016,22,0,186.917,186.917,69.7322,-62.5692,1022.5,0.62,-999.0,yes,yes,no,300234063266850,unknown,unknown,unknown,South
2016-07-04T22:59:31Z,1467673171,2016,23,0,186.958,186.958,69.7256,-62.5702,1022.4,0.54,-999.0,yes,yes,no,300234063266850,unknown,unknown,unknown,South
2016-07-05T00:00:00Z,1467676800,2016,0,0,187.0,187.0,69.7218,-62.5718,1022.4,0.55,-999.0,yes,yes,no,300234063266850,unknown,unknown,unknown,South
2016-07-05T01:00:28Z,1467680429,2016,1,0,187.042,187.042,69.72,-62.5736,1022.2,1.01,-999.0,yes,yes,no,300234063266850,unknown,unknown,unknown,South
2016-07-05T01:59:31Z,1467683971,2016,2,0,187.083,187.083,69.7192,-62.5744,1022.0,0.55,-999.0,yes,yes,no,300234063266850,unknown,unknown,unknown,South
2016-07-05T03:00:00Z,1467687600,2016,3,0,187.125,187.125,69.7188,-62.5734,1021.7,-0.03,-999.0,yes,yes,no,300234063266850,unknown,unknown,unknown,South
2016-07-05T04:00:28Z,1467691229,2016,4,0,187.167,187.167,69.7172,-62.5696,1021.4,-0.19,-999.0,yes,yes,no,300234063266850,unknown,unknown,unknown,South
2016-07-05T04:59:31Z,1467694771,2016,5,0,187.208,187.208,69.7134,-62.5622,1020.9,-0.09,-999.0,yes,yes,no,300234063266850,unknown,unknown,unknown,South
2016-07-05T06:00:00Z,1467698400,2016,6,0,187.25,187.25,69.707,-62.5518,1020.9,-0.18,-999.0,yes,yes,no,300234063266850,unknown,unknown,unknown,South
2016-07-05T07:00:28Z,1467702029,2016,7,0,187.292,187.292,69.6982,-62.5386,1020.6,0.67,-999.0,yes,yes,no,300234063266850,unknown,unknown,unknown,South
2016-07-05T07:59:31Z,1467705571,2016,8,0,187.333,187.333,69.6876,-62.5246,1020.1,1.53,-999.0,yes,yes,no,300234063266850,unknown,unknown,unknown,South
2016-07-05T09:00:00Z,1467709200,2016,9,0,187.375,187.375,69.6762,-62.5112,1019.8,2.78,-999.0,yes,yes,no,300234063266850,unknown,unknown,unknown,South
2016-07-05T10:00:28Z,1467712829,2016,10,0,187.417,187.417,69.6646,-62.501,1019.6,4.07,-999.0,yes,yes,no,300234063266850,unknown,unknown,unknown,South
2016-07-05T10:59:31Z,1467716371,2016,11,0,187.458,187.458,69.6544,-62.4968,1019.2,5.17,-999.0,yes,yes,no,300234063266850,unknown,unknown,unknown,South
2016-07-05T12:00:00Z,1467720000,2016,12,0,187.5,187.5,69.6462,-62.4984,1019.0,6.69,-999.0,yes,yes,no,300234063266850,unknown,unknown,unknown,South
2016-07-05T13:00:28Z,1467723629,2016,13,0,187.542,187.542,69.6406,-62.5044,1018.8,9.32,-999.0,yes,yes,no,300234063266850,unknown,unknown,unknown,South
2016-07-05T13:59:31Z,1467727171,2016,14,0,187.583,187.583,69.6374,-62.5126,1018.4,12.31,-999.0,yes,yes,no,300234063266850,unknown,unknown,unknown,South
2016-07-05T15:00:00Z,1467730800,2016,15,0,187.625,187.625,69.6358,-62.5186,1018.0,13.3,-999.0,yes,yes,no,300234063266850,unknown,unknown,unknown,South
2016-07-05T16:00:28Z,1467734429,2016,16,0,187.667,187.667,69.6338,-62.52,1017.9,13.72,-999.0,yes,yes,no,300234063266850,unknown,unknown,unknown,South
2016-07-05T16:59:31Z,1467737971,2016,17,0,187.708,187.708,69.6302,-62.5172,1017.7,11.5,-999.0,yes,yes,no,300234063266850,unknown,unknown,unknown,South
2016-07-05T18:00:00Z,1467741600,2016,18,0,187.75,187.75,69.6244,-62.5114,1017.5,8.36,-999.0,yes,yes,no,300234063266850,unknown,unknown,unknown,South
2016-07-05T19:00:28Z,1467745229,2016,19,0,187.792,187.792,69.6158,-62.5028,1017.4,6.18,-999.0,yes,yes,no,300234063266850,unknown,unknown,unknown,South
2016-07-05T19:59:31Z,1467748771,2016,20,0,187.833,187.833,69.605,-62.493,1017.3,4.7,-999.0,yes,yes,no,300234063266850,unknown,unknown,unknown,South
2016-07-05T21:00:00Z,1467752400,2016,21,0,187.875,187.875,69.5928,-62.486,1017.1,4.3,-999.0,yes,yes,no,300234063266850,unknown,unknown,unknown,South
2016-07-05T22:00:28Z,1467756029,2016,22,0,187.917,187.917,69.5816,-62.4834,1017.0,4.04,-999.0,yes,yes,no,300234063266850,unknown,unknown,unknown,South
2016-07-05T22:59:31Z,1467759571,2016,23,0,187.958,187.958,69.572,-62.4846,1016.9,3.61,-999.0,yes,yes,no,300234063266850,unknown,unknown,unknown,South
2016-07-06T00:00:00Z,1467763200,2016,0,0,188.0,188.0,69.564,-62.491,1016.7,3.05,-999.0,yes,yes,no,300234063266850,unknown,unknown,unknown,South
2016-07-06T01:00:28Z,1467766829,2016,1,0,188.042,188.042,69.559,-62.5026,1016.8,2.39,-999.0,yes,yes,no,300234063266850,unknown,unknown,unknown,South
2016-07-06T01:59:31Z,1467770371,2016,2,0,188.083,188.083,69.5562,-62.5176,1016.4,1.72,-999.0,yes,yes,no,300234063266850,unknown,unknown,unknown,South
2016-07-06T03:00:00Z,1467774000,2016,3,0,188.125,188.125,69.5542,-62.5318,1016.3,1.39,-999.0,yes,yes,no,300234063266850,unknown,unknown,unknown,South
2016-07-06T04:00:28Z,1467777629,2016,4,0,188.167,188.167,69.5532,-62.5432,1016.0,1.08,-999.0,yes,yes,no,300234063266850,unknown,unknown,unknown,South
2016-07-06T04:59:31Z,1467781171,2016,5,0,188.208,188.208,69.551,-62.5472,1015.7,0.77,-999.0,yes,yes,no,300234063266850,unknown,unknown,unknown,South
2016-07-06T06:00:00Z,1467784800,2016,6,0,188.25,188.25,69.547,-62.5446,1015.5,1.12,-999.0,yes,yes,no,300234063266850,unknown,unknown,unknown,South
2016-07-06T07:00:28Z,1467788429,2016,7,0,188.292,188.292,69.54,-62.5364,1015.5,1.53,-999.0,yes,yes,no,300234063266850,unknown,unknown,unknown,South
2016-07-06T07:59:31Z,1467791971,2016,8,0,188.333,188.333,69.5294,-62.526,1015.3,2.45,-999.0,yes,yes,no,300234063266850,unknown,unknown,unknown,South
2016-07-06T09:00:00Z,1467795600,2016,9,0,188.375,188.375,69.5156,-62.5164,1015.1,3.23,-999.0,yes,yes,no,300234063266850,unknown,unknown,unknown,South
2016-07-06T10:00:28Z,1467799229,2016,10,0,188.417,188.417,69.5004,-62.5116,1015.1,5.38,-999.0,yes,yes,no,300234063266850,unknown,unknown,unknown,South
2016-07-06T10:59:31Z,1467802771,2016,11,0,188.458,188.458,69.4858,-62.5132,1015.1,9.04,-999.0,yes,yes,no,300234063266850,unknown,unknown,unknown,South
2016-07-06T12:00:00Z,1467806400,2016,12,0,188.5,188.5,69.4732,-62.5212,1015.2,11.99,-999.0,yes,yes,no,300234063266850,unknown,unknown,unknown,South
2016-07-06T13:00:28Z,1467810029,2016,13,0,188.542,188.542,69.463,-62.5352,1015.2,13.87,-999.0,yes,yes,no,300234063266850,unknown,unknown,unknown,South
2016-07-06T13:59:31Z,1467813571,2016,14,0,188.583,188.583,69.4548,-62.5524,1015.0,13.25,-999.0,yes,yes,no,300234063266850,unknown,unknown,unknown,South
2016-07-06T15:00:00Z,1467817200,2016,15,0,188.625,188.625,69.4484,-62.5706,1014.6,12.46,-999.0,yes,yes,no,300234063266850,unknown,unknown,unknown,South
2016-07-06T16:00:28Z,1467820829,2016,16,0,188.667,188.667,69.4418,-62.586,1014.4,10.61,-999.0,yes,yes,no,300234063266850,unknown,unknown,unknown,South
2016-07-06T16:59:31Z,1467824371,2016,17,0,188.708,188.708,69.4338,-62.5992,1014.3,9.42,-999.0,yes,yes,no,300234063266850,unknown,unknown,unknown,South
2016-07-06T18:00:00Z,1467828000,2016,18,0,188.75,188.75,69.4244,-62.6106,1014.8,7.37,-999.0,yes,yes,no,300234063266850,unknown,unknown,unknown,South
2016-07-06T19:00:28Z,1467831629,2016,19,0,188.792,188.792,69.414,-62.6174,1014.7,6.93,-999.0,yes,yes,no,300234063266850,unknown,unknown,unknown,South
2016-07-06T19:59:31Z,1467835171,2016,20,0,188.833,188.833,69.4024,-62.619,1014.8,5.57,-999.0,yes,yes,no,300234063266850,unknown,unknown,unknown,South
2016-07-06T21:00:00Z,1467838800,2016,21,0,188.875,188.875,69.39,-62.618,1014.7,4.44,-999.0,yes,yes,no,300234063266850,unknown,unknown,unknown,South
2016-07-06T22:00:28Z,1467842429,2016,22,0,188.917,188.917,69.3778,-62.6166,1014.6,3.7,-999.0,yes,yes,no,300234063266850,unknown,unknown,unknown,South
2016-07-06T22:59:31Z,1467845971,2016,23,0,188.958,188.958,69.366,-62.6176,1014.4,2.92,-999.0,yes,yes,no,300234063266850,unknown,unknown,unknown,South
2016-07-07T00:00:00Z,1467849600,2016,0,0,189.0,189.0,69.355,-62.6218,1014.4,2.85,-999.0,yes,yes,no,300234063266850,unknown,unknown,unknown,South
2016-07-07T01:00:28Z,1467853229,2016,1,0,189.042,189.042,69.3458,-62.631,1014.8,2.62,-999.0,yes,yes,no,300234063266850,unknown,unknown,unknown,South
2016-07-07T01:59:31Z,1467856771,2016,2,0,189.083,189.083,69.3392,-62.6446,1014.8,1.78,-999.0,yes,yes,no,300234063266850,unknown,unknown,unknown,South
2016-07-07T03:00:00Z,1467860400,2016,3,0,189.125,189.125,69.335,-62.6604,1014.9,1.43,-999.0,yes,yes,no,300234063266850,unknown,unknown,unknown,South
2016-07-07T04:00:28Z,1467864029,2016,4,0,189.167,189.167,69.3326,-62.672,1014.7,1.32,-999.0,yes,yes,no,300234063266850,unknown,unknown,unknown,South
2016-07-07T04:59:31Z,1467867571,2016,5,0,189.208,189.208,69.331,-62.6782,1014.7,1.22,-999.0,yes,yes,no,300234063266850,unknown,unknown,unknown,South
2016-07-07T06:00:00Z,1467871200,2016,6,0,189.25,189.25,69.3268,-62.6778,1015.1,1.13,-999.0,yes,yes,no,300234063266850,unknown,unknown,unknown,South
2016-07-07T07:00:28Z,1467874829,2016,7,0,189.292,189.292,69.3194,-62.6732,1015.1,1.12,-999.0,yes,yes,no,300234063266850,unknown,unknown,unknown,South
2016-07-07T07:59:31Z,1467878371,2016,8,0,189.333,189.333,69.31,-62.665,1015.3,1.46,-999.0,yes,yes,no,300234063266850,unknown,unknown,unknown,South
2016-07-07T09:00:00Z,1467882000,2016,9,0,189.375,189.375,69.2976,-62.6552,1015.6,1.53,-999.0,yes,yes,no,300234063266850,unknown,unknown,unknown,South
2016-07-07T10:00:28Z,1467885629,2016,10,0,189.417,189.417,69.283,-62.645,1015.7,2.2,-999.0,yes,yes,no,300234063266850,unknown,unknown,unknown,South
2016-07-07T10:59:31Z,1467889171,2016,11,0,189.458,189.458,69.267,-62.6396,1015.8,3.29,-999.0,yes,yes,no,300234063266850,unknown,unknown,unknown,South
2016-07-07T12:00:00Z,1467892800,2016,12,0,189.5,189.5,69.2516,-62.6448,1016.0,6.69,-999.0,yes,yes,no,300234063266850,unknown,unknown,unknown,South
2016-07-07T13:00:28Z,1467896429,2016,13,0,189.542,189.542,69.239,-62.6564,1016.1,9.11,-999.0,yes,yes,no,300234063266850,unknown,unknown,unknown,South
2016-07-07T13:59:31Z,1467899971,2016,14,0,189.583,189.583,69.2292,-62.6682,1016.1,12.63,-999.0,yes,yes,no,300234063266850,unknown,unknown,unknown,South
2016-07-07T15:00:00Z,1467903600,2016,15,0,189.625,189.625,69.2222,-62.675,1016.2,11.87,-999.0,yes,yes,no,300234063266850,unknown,unknown,unknown,South
2016-07-07T16:00:28Z,1467907229,2016,16,0,189.667,189.667,69.218,-62.6796,1016.3,12.98,-999.0,yes,yes,no,300234063266850,unknown,unknown,unknown,South
2016-07-07T16:59:31Z,1467910771,2016,17,0,189.708,189.708,69.214,-62.6804,1016.3,9.93,-999.0,yes,yes,no,300234063266850,unknown,unknown,unknown,South
2016-07-07T18:00:00Z,1467914400,2016,18,0,189.75,189.75,69.2086,-62.6734,1016.6,5.17,-999.0,yes,yes,no,300234063266850,unknown,unknown,unknown,South
2016-07-07T19:00:28Z,1467918029,2016,19,0,189.792,189.792,69.2002,-62.6596,1016.8,3.25,-999.0,yes,yes,no,300234063266850,unknown,unknown,unknown,South
2016-07-07T19:59:31Z,1467921571,2016,20,0,189.833,189.833,69.1884,-62.64,1017.0,2.36,-999.0,yes,yes,no,300234063266850,unknown,unknown,unknown,South
2016-07-07T21:00:00Z,1467925200,2016,21,0,189.875,189.875,69.1742,-62.6144,1016.8,1.61,-999.0,yes,yes,no,300234063266850,unknown,unknown,unknown,South
2016-07-07T22:00:28Z,1467928829,2016,22,0,189.917,189.917,69.156,-62.5912,1016.8,1.15,-999.0,yes,yes,no,300234063266850,unknown,unknown,unknown,South
2016-07-07T22:59:31Z,1467932371,2016,23,0,189.958,189.958,69.139,-62.5756,1016.7,1.01,-999.0,yes,yes,no,300234063266850,unknown,unknown,unknown,South
2016-07-08T00:00:00Z,1467936000,2016,0,0,190.0,190.0,69.127,-62.5688,1017.0,0.73,-999.0,yes,yes,no,300234063266850,unknown,unknown,unknown,South
2016-07-08T01:00:28Z,1467939629,2016,1,0,190.042,190.042,69.1192,-62.5622,1017.1,0.47,-999.0,yes,yes,no,300234063266850,unknown,unknown,unknown,South
2016-07-08T01:59:31Z,1467943171,2016,2,0,190.083,190.083,69.1148,-62.5564,1017.0,0.44,-999.0,yes,yes,no,300234063266850,unknown,unknown,unknown,South
2016-07-08T03:00:00Z,1467946800,2016,3,0,190.125,190.125,69.113,-62.5458,1016.7,0.38,-999.0,yes,yes,no,300234063266850,unknown,unknown,unknown,South
2016-07-08T04:00:28Z,1467950429,2016,4,0,190.167,190.167,69.1124,-62.5326,1016.6,0.34,-999.0,yes,yes,no,300234063266850,unknown,unknown,unknown,South
2016-07-08T04:59:31Z,1467953971,2016,5,0,190.208,190.208,69.1122,-62.5162,1016.5,0.37,-999.0,yes,yes,no,300234063266850,unknown,unknown,unknown,South
2016-07-08T06:00:00Z,1467957600,2016,6,0,190.25,190.25,69.1128,-62.4974,1016.6,0.42,-999.0,yes,yes,no,300234063266850,unknown,unknown,unknown,South
2016-07-08T07:00:28Z,1467961229,2016,7,0,190.292,190.292,69.1108,-62.4728,1016.3,0.47,-999.0,yes,yes,no,300234063266850,unknown,unknown,unknown,South
2016-07-08T07:59:31Z,1467964771,2016,8,0,190.333,190.333,69.1068,-62.441,1016.2,0.5,-999.0,yes,yes,no,300234063266850,unknown,unknown,unknown,South
2016-07-08T09:00:00Z,1467968400,2016,9,0,190.375,190.375,69.1002,-62.409,1015.9,0.63,-999.0,yes,yes,no,300234063266850,unknown,unknown,unknown,South
2016-07-08T10:00:28Z,1467972029,2016,10,0,190.417,190.417,69.0918,-62.3798,1015.9,0.57,-999.0,yes,yes,no,300234063266850,unknown,unknown,unknown,South
2016-07-08T10:59:31Z,1467975571,2016,11,0,190.458,190.458,69.0836,-62.3506,1015.8,0.6,-999.0,yes,yes,no,300234063266850,unknown,unknown,unknown,South
2016-07-08T12:00:00Z,1467979200,2016,12,0,190.5,190.5,69.0782,-62.3276,1015.4,0.68,-999.0,yes,yes,no,300234063266850,unknown,unknown,unknown,South
2016-07-08T13:00:28Z,1467982829,2016,13,0,190.542,190.542,69.0752,-62.3092,1015.5,1.48,-999.0,yes,yes,no,300234063266850,unknown,unknown,unknown,South
2016-07-08T13:59:31Z,1467986371,2016,14,0,190.583,190.583,69.0752,-62.293,1015.5,1.03,-999.0,yes,yes,no,300234063266850,unknown,unknown,unknown,South
2016-07-08T15:00:00Z,1467990000,2016,15,0,190.625,190.625,69.0782,-62.2766,1015.3,1.41,-999.0,yes,yes,no,300234063266850,unknown,unknown,unknown,South
2016-07-08T16:00:28Z,1467993629,2016,16,0,190.667,190.667,69.0822,-62.2594,1015.3,0.91,-999.0,yes,yes,no,300234063266850,unknown,unknown,unknown,South
2016-07-08T16:59:31Z,1467997171,2016,17,0,190.708,190.708,69.0868,-62.2416,1015.0,1.15,-999.0,yes,yes,no,300234063266850,unknown,unknown,unknown,South
2016-07-08T18:00:00Z,1468000800,2016,18,0,190.75,190.75,69.0916,-62.2224,1014.9,1.19,-999.0,yes,yes,no,300234063266850,unknown,unknown,unknown,South
2016-07-08T19:00:28Z,1468004429,2016,19,0,190.792,190.792,69.0962,-62.1986,1014.8,1.0,-999.0,yes,yes,no,300234063266850,unknown,unknown,unknown,South
2016-07-08T19:59:31Z,1468007971,2016,20,0,190.833,190.833,69.098,-62.1726,1014.6,0.74,-999.0,yes,yes,no,300234063266850,unknown,unknown,unknown,South
2016-07-08T21:00:00Z,1468011600,2016,21,0,190.875,190.875,69.0978,-62.1438,1014.5,0.56,-999.0,yes,yes,no,300234063266850,unknown,unknown,unknown,South
2016-07-08T22:00:28Z,1468015229,2016,22,0,190.917,190.917,69.0954,-62.1172,1014.2,0.65,-999.0,yes,yes,no,300234063266850,unknown,unknown,unknown,South
2016-07-08T22:59:31Z,1468018771,2016,23,0,190.958,190.958,69.0936,-62.0946,1014.1,0.55,-999.0,yes,yes,no,300234063266850,unknown,unknown,unknown,South
2016-07-09T00:00:00Z,1468022400,2016,0,0,191.0,191.0,69.0926,-62.0776,1014.0,0.41,-999.0,yes,yes,no,300234063266850,unknown,unknown,unknown,South